IXPE

Last updated on Sun Apr 12 2026 00:03:41 GMT+0000 (Coordinated Universal Time)

1 49954U 21121A 26101.50002315 .00011524 00000+0 63893-3 0 9998 2 49954 0.2300 101.0911 0007530 153.5368 259.1436 15.09641199 5928
UTC large
Height (km)
Speed (km/s)
/
Latitude / Longitude
Inclination (degrees)
Orbital Period (minutes)
Azimuth
Elevation
Range (km)
Doppler Factor

Next 0 passes for location: London (51.5072 / 0.1276)

Sorry there are no passes over London.
IXPE